This demonstration page uses our WeatherBlox Daily Observations layout. Learn more.

Left ArrowRight Arrow

44.8408, -93.29828

Hourly Observations for September 13, 2019

Temp ( °F °C ) Dew Point ( °F °C ) Humidity (%) Winds ( mph kmh ) Pressure ( in mb ) Visibility ( mi km ) Precip ( " mm )
12:53 am 00:53 Mostly Clear 64 17.8 60 15.6 87 87 SW 7 11 29.81 1010 10 16 0.00 0.00
1:53 am 01:53 Mostly Clear 63 17.2 58 14.4 84 84 SW 13 20 29.80 1009 10 16 0.00 0.00
2:53 am 02:53 Mostly Cloudy 62 16.7 57 13.9 84 84 WSW 16 26 29.81 1010 10 16 0.00 0.00
3:06 am 03:06 Cloudy 62 16.7 57 13.9 84 84 SW 12 19 29.81 1009 10 16 0.00 0.00
3:53 am 03:53 Cloudy 61 16.1 57 13.9 87 87 W 15 24 29.82 1010 10 16 0.00 0.00
4:53 am 04:53 Cloudy 59 15 55 12.8 87 87 W 10 17 29.83 1010 10 16 0.00 0.00
5:53 am 05:53 Mostly Cloudy 58 14.4 54 12.2 87 87 WSW 9 15 29.84 1011 10 16 0.00 0.00
6:53 am 06:53 Cloudy 57 13.9 52 11.1 83 83 WSW 16 26 29.85 1011 10 16 0.00 0.00
7:39 am 07:39 Cloudy with Light Rain 56 13.3 52 11.1 87 87 WSW 12 19 29.88 1012 9 14 0.00 0.00
7:51 am 07:51 Cloudy 55 13 52 11 88 88 WSW 16 26 29.88 1012 10 16 0.00 0.00
7:53 am 07:53 Cloudy 56 13.3 51 10.6 84 84 WSW 13 20 29.88 1012 10 16 0.00 0.00
8:53 am 08:53 Mostly Cloudy 57 13.9 49 9.4 74 74 W 17 28 29.90 1012 10 16 0.00 0.00
9:14 am 09:14 Partly Cloudy 58 14.4 49 9.4 72 72 WNW 20 31 29.91 1013 10 16 0.00 0.00
9:32 am 09:32 Mostly Cloudy 57 13.9 49 9.4 74 74 W 17 28 29.92 1013 10 16 0.00 0.00
9:53 am 09:53 Mostly Cloudy 57 13.9 49 9.4 74 74 W 14 22 29.92 1013 10 16 0.00 0.00
10:03 am 10:03 Mostly Cloudy 59 15 49 9.4 69 69 W 14 22 29.92 1013 10 16 0.00 0.00
10:53 am 10:53 Cloudy 58 14.4 48 8.9 70 70 W 20 31 29.94 1014 10 16 0.00 0.00
11:07 am 11:07 Cloudy with Light Rain 56 13.3 48 8.9 75 75 W 23 37 29.95 1014 9 14 0.00 0.00
11:25 am 11:25 Cloudy 59 15 49 9.4 69 69 W 16 26 29.95 1014 10 16 0.00 0.00
11:53 am 11:53 Cloudy 58 14.4 48 8.9 70 70 W 16 26 29.96 1015 10 16 0.00 0.00
12:53 pm 12:53 Cloudy 58 14.4 49 9.4 72 72 W 18 30 29.98 1015 9 14 0.00 0.00
1:53 pm 13:53 Cloudy 60 15.6 49 9.4 67 67 W 18 30 29.98 1015 10 16 0.00 0.00
2:22 pm 14:22 Cloudy 60 15.6 48 8.9 65 65 W 21 33 29.97 1015 10 16 0.00 0.00
2:53 pm 14:53 Cloudy 59 15 49 9.4 69 69 W 21 33 29.98 1015 10 16 0.00 0.00
3:50 pm 15:50 Cloudy 61 16 48 9 63 63 W 17 28 29.99 1016 10 16 0.00 0.00
3:53 pm 15:53 Cloudy 60 15.6 49 9.4 67 67 W 14 22 30.00 1016 10 16 0.00 0.00
4:53 pm 16:53 Cloudy 60 15.6 49 9.4 67 67 W 15 24 30.01 1016 10 16 0.00 0.00
5:00 pm 17:00 Cloudy 60 15.6 49 9.4 67 67 W 16 26 30.00 1016 10 16 0.00 0.00
5:30 pm 17:30 Cloudy 60 15.6 50 10 70 70 WNW 13 20 30.01 1016 10 16 0.00 0.00
5:53 pm 17:53 Cloudy 61 16.1 49 9.4 65 65 W 16 26 30.02 1017 10 16 0.00 0.00
6:25 pm 18:25 Cloudy 60 15.6 50 10 70 70 W 14 22 30.02 1017 10 16 0.00 0.00
6:53 pm 18:53 Cloudy 60 15.6 49 9.4 67 67 W 10 17 30.03 1017 10 16 0.00 0.00
7:53 pm 19:53 Mostly Cloudy 59 15 50 10 72 72 WSW 5 7 30.06 1018 10 16 0.00 0.00
8:53 pm 20:53 Mostly Cloudy 59 15 50 10 72 72 WSW 7 11 30.08 1019 10 16 0.00 0.00
9:53 pm 21:53 Mostly Cloudy 59 15 51 10.6 75 75 W 8 13 30.08 1019 10 16 0.00 0.00
10:53 pm 22:53 Mostly Cloudy 58 14.4 51 10.6 78 78 WSW 6 9 30.09 1019 10 16 0.00 0.00
11:53 pm 23:53 Mostly Clear 57 13.9 51 10.6 81 81 SW 5 7 30.08 1019 10 16 0.00 0.00

Powered by AerisWeather